This demonstration page uses our WeatherBlox Daily Observations layout. Learn more.

Left ArrowRight Arrow

34.02893, -84.19858

Hourly Observations for November 18, 2016

Temp ( °F °C ) Dew Point ( °F °C ) Humidity (%) Winds ( mph kmh ) Pressure ( in mb ) Visibility ( mi km ) Precip ( " mm )
12:53 am 00:53 Clear with Smoke 47 8.3 42 5.6 83 83 Calm 30.15 1021 10 16 0.00 0.00
1:53 am 01:53 Clear with Smoke 45 7.2 41 5 86 86 Calm 30.15 1021 10 16 0.00 0.00
2:53 am 02:53 Clear with Smoke 46 7.8 42 5.6 86 86 Calm 30.16 1021 10 16 0.00 0.00
3:53 am 03:53 Clear with Smoke 44 6.7 41 5 89 89 Calm 30.16 1021 9 14 0.00 0.00
4:53 am 04:53 Clear with Smoke 43 6.1 40 4.4 89 89 Calm 30.17 1022 8 13 0.00 0.00
5:53 am 05:53 Clear with Smoke 43 6.1 40 4.4 89 89 Calm 30.19 1022 8 13 0.00 0.00
6:53 am 06:53 Clear with Smoke 43 6.1 39 3.9 86 86 Calm 30.20 1023 7 11 0.00 0.00
7:53 am 07:53 Sunny with Mist and Fog 44 6.7 41 5 89 89 Calm 30.22 1023 6 10 0.00 0.00
8:53 am 08:53 Hazy 57 13.9 45 7.2 64 64 Calm 30.23 1024 6 10 0.00 0.00
9:53 am 09:53 Sunny with Smoke 65 18.3 42 5.6 43 43 Calm 30.23 1024 7 11 0.00 0.00
10:53 am 10:53 Sunny with Smoke 70 21.1 43 6.1 38 38 NNW 5 7 30.22 1024 10 16 0.00 0.00
11:53 am 11:53 Sunny with Smoke 74 23.3 41 5 31 31 W 6 9 30.21 1023 10 16 0.00 0.00
12:53 pm 12:53 Sunny with Smoke 76 24.4 40 4.4 27 27 S 5 7 30.17 1022 10 16 0.00 0.00
1:53 pm 13:53 Sunny with Smoke 77 25 38 3.3 24 24 W 6 9 30.15 1021 10 16 0.00 0.00
2:53 pm 14:53 Sunny with Smoke 78 25.6 37 2.8 23 23 VRB 7 11 30.12 1020 10 16 0.00 0.00
3:53 pm 15:53 Sunny with Smoke 77 25 36 2.2 23 23 SW 5 7 30.12 1020 10 16 0.00 0.00
4:53 pm 16:53 Sunny with Smoke 75 23.9 38 3.3 26 26 SSE 5 7 30.11 1020 10 16 0.00 0.00
5:53 pm 17:53 Clear with Smoke 68 20 39 3.9 35 35 Calm 30.13 1020 10 16 0.00 0.00
6:53 pm 18:53 Clear with Smoke 58 14.4 41 5 53 53 Calm 30.15 1021 10 16 0.00 0.00
7:53 pm 19:53 Clear with Smoke 57 13.9 43 6.1 60 60 Calm 30.14 1021 9 14 0.00 0.00
8:53 pm 20:53 Clear with Smoke 51 10.6 42 5.6 71 71 Calm 30.14 1021 10 16 0.00 0.00
9:53 pm 21:53 Clear with Smoke 52 11.1 43 6.1 72 72 Calm 30.13 1020 8 13 0.00 0.00
10:53 pm 22:53 Clear with Smoke 52 11.1 43 6.1 72 72 Calm 30.14 1021 10 16 0.00 0.00
11:53 pm 23:53 Clear with Smoke 49 9.4 42 5.6 77 77 Calm 30.13 1020 9 14 0.00 0.00

Powered by AerisWeather